Retour au catalogue

MOLNIYA 3-40

ActifCommunicationsHEO
NORAD 21196·PAYLOAD·🇷🇺 Russia

Lancé Mar 22, 1991 depuis Plesetsk Cosmodrome

Loading…

Prochains Passages (prochaines 24 heures)

TLE

FraisSource: Space-Track

Époque: Sep 13, 2026, 00:40 UTC

1 21196U 91022A   26256.02846174  .00001150  00000-0  00000-0 0  9993
2 21196  64.7118 181.2980 6454028 252.3903  31.3938  2.03001583261121

Suivez MOLNIYA 3-40 en temps réel avec AllMySat

Download on the App Store